Hourly Data Report for April 09, 2017

All times are specified in Local Standard Time (LST). Add 1 hour to adjust for Daylight Saving Time where and when it is observed.

TORONTO CITY
ONTARIO

43°40'00.000" N
79°24'00.000" W
112.50 m
6158355
71508
XTO

Download Data

Hourly Data (April 2017)
Hourly Data Report for April 9, 2017
TIME Temp Definition
°C
Dew Point Definition
°C
Rel Hum Definition
%
Wind Dir Definition
10's deg

Wind Spd Definition
km/h
Visibility Definition
km
Stn Press Definition
kPa
Hmdx Definition


Wind Chill Definition


Weather Definition


00:00 7.7 -0.8 55 LegendMM LegendMM   100.17     LegendNANA
01:00 6.5 -1.3 58 LegendMM LegendMM   100.17     LegendNANA
02:00 6.0 -2.6 54 LegendMM LegendMM   100.15     LegendNANA
03:00 5.4 -2.5 57 LegendMM LegendMM   100.22     LegendNANA
04:00 5.3 -3.6 53 LegendMM LegendMM   100.25     LegendNANA
05:00 5.4 -3.8 52 LegendMM LegendMM   100.26     LegendNANA
06:00 5.1 -2.5 58 LegendMM LegendMM   100.29     LegendNANA
07:00 7.1 -4.3 44 LegendMM LegendMM   100.33     LegendNANA
08:00 8.3 -3.3 44 LegendMM LegendMM   100.31     LegendNANA
09:00 9.3 -1.9 45 LegendMM LegendMM   100.29     LegendNANA
10:00 11.8 -1.6 39 LegendMM LegendMM   100.26     LegendNANA
11:00 13.3 -1.2 37 LegendMM LegendMM   100.24     LegendNANA
12:00 14.4 -1.4 34 LegendMM LegendMM   100.19     LegendNANA
13:00 16.1 0.7 35 LegendMM LegendMM   100.17     LegendNANA
14:00 15.8 0.1 34 LegendMM LegendMM   100.12     LegendNANA
15:00 16.0 1.0 36 LegendMM LegendMM   100.05     LegendNANA
16:00 17.5 -0.3 30 LegendMM LegendMM   99.99     LegendNANA
17:00 18.0 0.1 30 LegendMM LegendMM   99.97     LegendNANA
18:00 16.6 0.1 33 LegendMM LegendMM   99.94     LegendNANA
19:00 14.6 1.1 40 LegendMM LegendMM   99.91     LegendNANA
20:00 12.9 1.1 44 LegendMM LegendMM   99.92     LegendNANA
21:00 12.7 0.8 44 LegendMM LegendMM   99.95     LegendNANA
22:00 12.0 1.6 49 LegendMM LegendMM   99.98     LegendNANA
23:00 11.3 1.7 51 LegendMM LegendMM   99.97     LegendNANA

Notes on Data Quality.

Legend

  • E = Estimated
  • M = Missing
  • NA = Not Available
Date modified: